Tracking 19636 objects as of 25-May-2019
HD Live streaming from Space Station
objects crossing your sky now

GLOBALSTAR M034

Track GLOBALSTAR M034 now!
10-day predictions
GLOBALSTAR M034 is classified as:


NORAD ID: 25962
Int'l Code: 1999-062B
Perigee: 1,769.9 km
Apogee: 1,793.3 km
Inclination: 52.0 °
Period: 122.1 minutes
Semi major axis: 8152 km
RCS: 2.591 m2 (large)
Launch date: November 22, 1999
Source: Globalstar (GLOB)
Launch site: TYURATAM MISSILE AND SPACE COMPLEX (TTMTR)
aabbcc
Your satellite tracking list
Your tracking list is empty




NASA's NSSDC Master Catalog

Two Line Element Set (TLE):
1 25962U 99062B   19144.82986122 -.00000094  00000-0 -20045-3 0  9996
2 25962  51.9897   9.6410 0014381 171.6303 269.2063 11.79388853876982
Source of the keplerian elements: AFSPC